Syracuse, NY

12:25 AM EST on January 17, 2018 (GMT -0500)
Syracuse Hancock International

Weather History for KSYR - November, 2010

Change the Weather History Date:

Wednesday, November 3, 2010

  Actual Average Record
Temperature  
Mean Temperature 40 °F 45 °F  
Max Temperature 53 °F 54 °F 74 °F (1946)
Min Temperature 27 °F 36 °F 24 °F (1951)
Degree Days  
Heating Degree Days 25 20  
Month to date heating degree days 79 60  
Since 1 July heating degree days 629 677  
Cooling Degree Days 0 0  
Month to date cooling degree days 0 0  
Year to date cooling degree days 796 569  
Moisture  
Dew Point 30 °F    
Average Humidity 69    
Maximum Humidity 100    
Minimum Humidity 38    
Precipitation  
Precipitation 0.00 in 0.13 in 1.26 in (1954)
Month to date precipitation T 0.37  
Year to date precipitation 36.11 32.09  
Snow  
Snow 0.00 in 0.20 in 5.30 in (1962)
Month to date snowfall T 0.4  
Since 1 July snowfall T 0.8  
Since 1 September snowfall T 0.8  
Snow Depth 0.00 in    
Sea Level Pressure  
Sea Level Pressure 30.08 in    
Wind  
Wind Speed 5 mph (SSE)    
Max Wind Speed 14 mph    
Max Gust Speed 17 mph    
Visibility 10 miles    
Events      
T = Trace of Precipitation, MM = Missing Value Source: NWS Daily Summary

Daily Weather History Graph

Daily Weather History Graph

Search for Another Location

Airport or City:

Trip Planner

Search our weather history database for the weather conditions in past years. The results will help you decide how hot, cold, wet, or windy it might be!

Date:

Astronomy

Nov. 03, 2010 Rise Set
Actual Time 7:41 AM EDT 5:53 PM EDT
Civil Twilight 7:11 AM EDT 6:23 PM EDT
Nautical Twilight 6:38 AM EDT 6:57 PM EDT
Astronomical Twilight 6:05 AM EDT 7:30 PM EDT
Moon 4:34 AM EDT (11/3) 4:05 PM EDT (11/3)
Length of Visible Light 11h 11m
Length of Day
10h 12m
Waning Crescent, 9% of the Moon is Illuminated
Nov 3
Waning Crescent
Nov 6
New
Nov 13
First Quarter
Nov 21
Full
Nov 28
Last Quarter

Hourly Weather History & Observations

Time (EDT) Temp. Windchill Dew Point Humidity Pressure Visibility Wind Dir Wind Speed Gust Speed Precip Events Conditions
12:54 AM 34.0 °F - 30.0 °F 85% 30.32 in 10.0 mi Calm Calm - N/A   Overcast
1:54 AM 34.0 °F - 30.0 °F 85% 30.31 in 10.0 mi Calm Calm - N/A   Overcast
2:54 AM 33.1 °F - 30.0 °F 89% 30.29 in 10.0 mi Calm Calm - N/A   Overcast
3:54 AM 32.0 °F 27.5 °F 28.9 °F 88% 30.27 in 10.0 mi ESE 4.6 mph - N/A   Mostly Cloudy
4:54 AM 30.9 °F 27.5 °F 28.9 °F 92% 30.25 in 10.0 mi SE 3.5 mph - N/A   Mostly Cloudy
5:54 AM 28.9 °F 23.9 °F 28.0 °F 96% 30.24 in 10.0 mi ESE 4.6 mph - N/A   Scattered Clouds
6:54 AM 28.9 °F - 27.0 °F 92% 30.23 in 10.0 mi Calm Calm - N/A   Scattered Clouds
7:54 AM 28.0 °F 22.8 °F 27.0 °F 96% 30.22 in 10.0 mi ESE 4.6 mph - N/A   Scattered Clouds
8:54 AM 30.0 °F 24.1 °F 28.9 °F 96% 30.22 in 10.0 mi ESE 5.8 mph - N/A   Scattered Clouds
9:54 AM 35.1 °F 31.0 °F 32.0 °F 89% 30.19 in 10.0 mi ESE 4.6 mph - N/A   Scattered Clouds
10:54 AM 41.0 °F 39.0 °F 33.1 °F 73% 30.17 in 10.0 mi East 3.5 mph - N/A   Scattered Clouds
11:54 AM 48.0 °F - 33.1 °F 56% 30.12 in 10.0 mi East 3.5 mph - N/A   Scattered Clouds
12:54 PM 50.0 °F - 28.0 °F 43% 30.07 in 10.0 mi Variable 4.6 mph - N/A   Scattered Clouds
1:54 PM 51.1 °F - 28.0 °F 41% 30.02 in 10.0 mi SW 8.1 mph - N/A   Scattered Clouds
2:54 PM 53.1 °F - 28.9 °F 40% 29.98 in 10.0 mi South 9.2 mph - N/A   Scattered Clouds
3:54 PM 53.1 °F - 30.0 °F 41% 29.95 in 10.0 mi South 10.4 mph - N/A   Scattered Clouds
4:54 PM 52.0 °F - 30.0 °F 43% 29.92 in 10.0 mi South 9.2 mph - N/A   Scattered Clouds
5:54 PM 48.9 °F - 30.0 °F 48% 29.93 in 10.0 mi South 6.9 mph - N/A   Scattered Clouds
6:54 PM 46.9 °F - 28.9 °F 50% 29.91 in 10.0 mi SSE 5.8 mph - N/A   Scattered Clouds
7:54 PM 44.1 °F 40.1 °F 30.0 °F 58% 29.91 in 10.0 mi SSE 6.9 mph - N/A   Mostly Cloudy
8:54 PM 43.0 °F 39.5 °F 30.0 °F 60% 29.89 in 10.0 mi SSE 5.8 mph - N/A   Mostly Cloudy
9:54 PM 45.0 °F 42.6 °F 32.0 °F 60% 29.87 in 10.0 mi SE 4.6 mph - N/A   Overcast
10:54 PM 46.0 °F 41.4 °F 32.0 °F 58% 29.86 in 10.0 mi South 9.2 mph - N/A   Overcast
11:54 PM 45.0 °F 43.5 °F 32.0 °F 60% 29.82 in 10.0 mi SSE 3.5 mph - N/A   Mostly Cloudy